This is the latest recevied weather packets stored in our database for station/object W3AJR. If no packets are shown the sender has not sent any weather packets the latest 10 day(s).
| Time | Temp. | Humidity | Pressure | Rain* | Wind** | Luminosity | Snow |
|---|---|---|---|---|---|---|---|
| 1778005441 | 28.33° C | 32% | 1010.5 hPa | 0 mm | - | 604 W/m² | - |
| 1778005137 | 28.33° C | 32% | 1010.4 hPa | 0 mm | - | 595 W/m² | - |
| 1778004835 | 27.78° C | 32% | 1010.5 hPa | 0 mm | - | 583 W/m² | - |
| 1778004531 | 27.78° C | 34% | 1010.4 hPa | 0 mm | - | 658 W/m² | - |
| 1778004228 | 28.33° C | 34% | 1010.5 hPa | 0 mm | - | 663 W/m² | - |
| 1778003925 | 27.22° C | 36% | 1010.3 hPa | 0 mm | - | 669 W/m² | - |
| 1778003621 | 27.78° C | 36% | 1010.5 hPa | 0 mm | - | 698 W/m² | - |
| 1778003317 | 27.78° C | 36% | 1010.7 hPa | 0 mm | - | 691 W/m² | - |
| 1778003015 | 27.22° C | 36% | 1010.6 hPa | 0 mm | - | 666 W/m² | - |
| 1778002710 | 27.22° C | 36% | 1010.9 hPa | 0 mm | - | 693 W/m² | - |
| 1778002407 | 27.22° C | 38% | 1010.8 hPa | 0 mm | - | 690 W/m² | - |
| 1778002105 | 26.67° C | 39% | 1010.7 hPa | 0 mm | - | 723 W/m² | - |
| 1778001803 | 27.22° C | 40% | 1010.8 hPa | 0 mm | - | 727 W/m² | - |
| 1778001502 | 27.22° C | 39% | 1010.7 hPa | 0 mm | - | 734 W/m² | - |
| 1778001199 | 27.22° C | 40% | 1011.1 hPa | 0 mm | - | 744 W/m² | - |
| 1778000896 | 26.67° C | 40% | 1011.1 hPa | 0 mm | - | 667 W/m² | - |
| 1778000592 | 26.67° C | 41% | 1011.2 hPa | 0 mm | - | 693 W/m² | - |
| 1778000288 | 26.67° C | 41% | 1011.1 hPa | 0 mm | - | 780 W/m² | - |
| 1777999984 | 26.67° C | 42% | 1010.7 hPa | 0 mm | - | 781 W/m² | - |
| 1777999679 | 26.67° C | 43% | 1011 hPa | 0 mm | - | 790 W/m² | - |
| 1777999377 | 26.67° C | 42% | 1011.1 hPa | 0 mm | - | 791 W/m² | - |
| 1777999075 | 26.67° C | 43% | 1011.3 hPa | 0 mm | - | 782 W/m² | - |
| 1777998773 | 26.67° C | 44% | 1011.2 hPa | 0 mm | - | 757 W/m² | - |
| 1777998470 | 26.11° C | 43% | 1011.1 hPa | 0 mm | - | 741 W/m² | - |
| 1777998167 | 26.11° C | 42% | 1011.4 hPa | 0 mm | - | 766 W/m² | - |
* Rain latest hour (hover to see other rain measurements)
** Current wind speed in m/s (hover to see current wind gust speed)